Location: Colonia Mina de C?rbuni
(46.1667°N, 22.7167°E)
Time: 07:22:57
(UTC+00:00)

Vanguard 1 Rocket - Pass Details

Date: 15 April 2024
Orbit: 650 x 4220 km, 34.3° (Epoch: 26 May)

Event Time Altitude Azimuth Distance (km) Brightness Sun altitude
Rises 17:43:41 0° 219° (SW) 3,300 10.5 -5.2°
Reaches altitude 10° 17:46:10 10° 204° (SSW) 2,603 9.8 -5.6°
Maximum altitude 17:51:07 25° 150° (SSE) 2,244 9.0 -6.4°
Drops below altitude 10° 17:58:42 10° 100° (E) 4,147 10.1 -7.6°
Enters shadow 18:00:20 - 96° (E) 4,665 10.4 -7.9°
